Location: George Washington National Forest Helicopter Landing Site
(38.6463°N, 79.0851°W)
Time: 14:52:49
(UTC-04:00)

Tiros 1 - Pass Details

Date: 29 August 2019
Orbit: 631 x 664 km, 48.4° (Epoch: 17 September)

Event Time Altitude Azimuth Distance (km) Brightness Sun altitude
Exits shadow 04:57:32 37° 282° (WNW) 983 7.7 -19.9°
Maximum altitude 04:59:10 62° 218° (SW) 716 7.0 -19.6°
Drops below altitude 10° 05:03:47 10° 137° (SE) 2,031 9.9 -18.8°
Sets 05:06:09 0° 134° (SE) 2,943 10.8 -18.4°
